Regional Weather Roundup
Issued by NWS

Home | Current Version | Previous Version | Graphics & Text | Print | Product List | Glossary On
Versions: 1 2 3 4 5 6 7 8 9 10 11 12 13 14 15 16 17 18 19 20 21 22 23 24 25 26 27 28 29 30 31 32 33 34 35 36 37 38 39 40 41 42 43 44 45 46 47 48 49 50
000
ASUS43 KLSX 271207
RWRMO

WEATHER SUMMARY FOR MISSOURI
NATIONAL WEATHER SERVICE SPRINGFIELD MO
600 AM CST SAT DEC 27 2014

NOTE: "FAIR" INDICATES FEW OR NO CLOUDS BELOW 12,000 FEET WITH NO
       SIGNIFICANT WEATHER AND/OR OBSTRUCTIONS TO VISIBILITY.
       CURRENT SKY AND/OR WEATHER CONDITIONS ARE NOT AVAILABLE FOR
       CHILLICOTHE AND FARMINGTON.

MOZ001>031-035>038-043-044-053-054-271300-
...NORTHERN AND WESTERN MISSOURI...

CITY           SKY/WX    TMP DP  RH WIND       PRES   REMARKS
KANSAS CTY INT CLOUDY    32  27  81 NW12G22   30.10S WCI  23
6HR MIN TEMP:  32; 6HR MAX TEMP:  36; 6HR PCP:  0.01;

KANSAS C DTWN  CLOUDY    35  28  75 W14       30.18R WCI  26
6HR MIN TEMP:  35; 6HR MAX TEMP:  40;

LEE`S SUMMIT   CLOUDY    34  28  79 W10       30.12R WCI  26
6HR MIN TEMP:  34; 6HR MAX TEMP:  40;

ST JOSEPH      CLOUDY    31  27  85 NW18      30.14R WCI  19
6HR MIN TEMP:  31; 6HR MAX TEMP:  36; 6HR PCP: TRACE;

CHILLICOTHE      N/A     37  31  78 VRB7G18   30.10R
6HR MIN TEMP:  36; 6HR MAX TEMP:  43;

KIRKSVILLE     CLOUDY    35  31  85 W14G21    30.04R WCI  26
6HR MIN TEMP:  35; 6HR MAX TEMP:  45; 6HR PCP:  0.01;


$$
MOZ066>068-077>081-088>096-101>105-271300-
...SOUTHWEST MISSOURI...

CITY           SKY/WX    TMP DP  RH WIND       PRES   REMARKS
SPRINGFIELD    LGT RAIN  39  37  92 NW12      30.12R FOG
6HR MIN TEMP:  39; 6HR MAX TEMP:  50; 6HR PCP:  0.02;

JOPLIN         CLOUDY    36  31  82 NW13      30.19R WCI  27
6HR MIN TEMP:  36; 6HR MAX TEMP:  53; 6HR PCP:  0.02;


$$
MOZ032>034-039>042-045>050-055>058-069>072-271300-
...CENTRAL MISSOURI...

CITY           SKY/WX    TMP DP  RH WIND       PRES   REMARKS
COLUMBIA       CLOUDY    40  37  89 W14G24    30.08R
6HR MIN TEMP:  40; 6HR MAX TEMP:  51; 6HR PCP:  0.01;

JEFFERSON CITY CLOUDY    43  39  86 W14       30.09R
6HR MIN TEMP:  43; 6HR MAX TEMP:  51;

ROLLA          CLOUDY    48  47  96 SW7       30.03R
6HR MIN TEMP:  46; 6HR MAX TEMP:  49; 6HR PCP: TRACE;

SEDALIA        CLOUDY    39  34  82 NW13      30.10R
6HR MIN TEMP:  39; 6HR MAX TEMP:  53; 6HR PCP: TRACE;

WHITEMAN AFB   CLOUDY    36  31  83 NW13      30.11R WCI  27
WARRENSBURG    CLOUDY    34  30  86 W8        30.12R WCI  27
OSAGE BEACH    CLOUDY    43  37  81 W8G20     30.10R

$$
MOZ051-052-059>065-271300-
...EAST CENTRAL MISSOURI...

CITY           SKY/WX    TMP DP  RH WIND       PRES   REMARKS
ST LOUIS INTL  CLOUDY    50  46  86 S7        30.06S
6HR MIN TEMP:  49; 6HR MAX TEMP:  50; 6HR PCP:  0.01;

SPIRIT OF STL  CLOUDY    50  46  87 S6        30.05R
6HR MIN TEMP:  49; 6HR MAX TEMP:  50;

ST CHARLES     CLOUDY    48  47  96 S3        30.05S
6HR MIN TEMP:  47; 6HR MAX TEMP:  49; 6HR PCP: TRACE;


$$
MOZ072>076-082>087-097>100-106>115-271300-
...SOUTH CENTRAL AND SOUTHEAST MISSOURI...

CITY           SKY/WX    TMP DP  RH WIND       PRES   REMARKS
CAPE GIRARDEAU CLOUDY    46  46 100 S6        30.14R FOG
6HR MIN TEMP:  45; 6HR MAX TEMP:  48; 6HR PCP:  0.20;

FARMINGTON     CLOUDY    46  45  93 CALM      30.11R
6HR MIN TEMP:  45; 6HR MAX TEMP:  46;

POPLAR BLUFF   LGT RAIN  48  46  93 CALM      30.10S FOG
6HR MIN TEMP:  46; 6HR MAX TEMP:  48; 6HR PCP:  0.20;

WEST PLAINS    FOG       48  47  96 SE3       30.07S VSB 1/2
6HR MIN TEMP:  47; 6HR MAX TEMP:  49;


$$


USA.gov is the U.S. government's official web portal to all federal, state and local government web resources and services.